This is the latest recevied weather packets stored in our database for station/object KC5TIL-3. If no packets are shown the sender has not sent any weather packets the latest 10 day(s).
| Time | Temp. | Humidity | Pressure | Rain* | Wind** | Luminosity | Snow |
|---|---|---|---|---|---|---|---|
| 1788078945 | 28.89° C | 28% | 1011.8 hPa | 0 mm | 3.58 m/s, 219° | - | - |
| 1788078646 | 28.89° C | 28% | 1011.8 hPa | 0 mm | 2.68 m/s, 209° | - | - |
| 1788078345 | 28.89° C | 27% | 1011.8 hPa | 0 mm | 3.13 m/s, 202° | - | - |
| 1788078047 | 28.89° C | 27% | 1011.8 hPa | 0 mm | 2.68 m/s, 207° | - | - |
| 1788077749 | 28.89° C | 26% | 1011.8 hPa | 0 mm | 3.58 m/s, 173° | - | - |
| 1788077447 | 29.44° C | 25% | 1011.8 hPa | 0 mm | 3.13 m/s, 218° | - | - |
| 1788077149 | 29.44° C | 24% | 1011.8 hPa | 0 mm | 3.13 m/s, 192° | - | - |
| 1788076851 | 29.44° C | 23% | 1011.8 hPa | 0 mm | 3.13 m/s, 188° | - | - |
| 1788076550 | 30° C | 22% | 1011.8 hPa | 0 mm | 3.13 m/s, 217° | - | - |
| 1788076252 | 30° C | 22% | 1011.8 hPa | 0 mm | 3.13 m/s, 139° | - | - |
| 1788075953 | 30° C | 21% | 1011.8 hPa | 0 mm | 4.47 m/s, 228° | - | - |
| 1788075652 | 30.56° C | 20% | 1011.8 hPa | 0 mm | 4.02 m/s, 193° | - | - |
| 1788075354 | 30.56° C | 20% | 1011.8 hPa | 0 mm | 3.58 m/s, 190° | - | - |
| 1788075056 | 30.56° C | 20% | 1011.8 hPa | 0 mm | 4.47 m/s, 212° | - | - |
| 1788074754 | 30.56° C | 19% | 1011.8 hPa | 0 mm | 4.47 m/s, 222° | - | - |
| 1788074456 | 31.11° C | 19% | 1011.8 hPa | 0 mm | 4.47 m/s, 203° | - | - |
| 1788074158 | 31.11° C | 19% | 1012.8 hPa | 0 mm | 3.13 m/s, 198° | - | - |
| 1788073857 | 31.11° C | 19% | 1012.8 hPa | 0 mm | 4.47 m/s, 203° | - | - |
| 1788073554 | 31.11° C | 19% | 1012.8 hPa | 0 mm | 4.02 m/s, 153° | - | - |
| 1788073256 | 31.11° C | 19% | 1012.8 hPa | 0 mm | 2.68 m/s, 198° | - | - |
| 1788072955 | 31.11° C | 19% | 1012.8 hPa | 0 mm | 3.13 m/s, 217° | - | - |
| 1788072656 | 31.11° C | 19% | 1012.8 hPa | 0 mm | 2.24 m/s, 203° | - | - |
| 1788072358 | 31.11° C | 18% | 1012.8 hPa | 0 mm | 2.24 m/s, 197° | - | - |
| 1788072057 | 31.11° C | 18% | 1012.8 hPa | 0 mm | 3.13 m/s, 201° | - | - |
| 1788071759 | 31.67° C | 18% | 1012.8 hPa | 0 mm | 3.13 m/s, 150° | - | - |
* Rain latest hour (hover to see other rain measurements)
** Current wind speed in m/s (hover to see current wind gust speed)